Hourly Weather Tuxtla Gutiérrez

Today, 2 October, Friday

Time Temperature Precipitation Wind Pressure Humidity
00:00 +21°C° 0.2 mm 3 mps 710 mmHg 94%
01:00 +21°C° 0.2 mm 3 mps 710 mmHg 94%
02:00 +21°C° 0.2 mm 3 mps 709 mmHg 94%
03:00 +21°C° 0.2 mm 3 mps 709 mmHg 95%
04:00 +21°C° 0.1 mm 3 mps 709 mmHg 95%
05:00 +21°C° 0.1 mm 2 mps 709 mmHg 95%
06:00 +21°C° 0.1 mm 2 mps 709 mmHg 95%
07:00 +21°C° 0.1 mm 3 mps 709 mmHg 93%
08:00 +22°C° 0.1 mm 3 mps 710 mmHg 91%
09:00 +24°C° 0.1 mm 3 mps 711 mmHg 89%
10:00 +24°C° 0.3 mm 3 mps 710 mmHg 89%
11:00 +23°C° 0.3 mm 4 mps 710 mmHg 90%
12:00 +22°C° 0.3 mm 4 mps 710 mmHg 91%
13:00 +22°C° 0.4 mm 4 mps 709 mmHg 91%
14:00 +22°C° 0.4 mm 4 mps 709 mmHg 92%
15:00 +21°C° 0.4 mm 4 mps 708 mmHg 93%
16:00 +21°C° 0.6 mm 4 mps 708 mmHg 94%
17:00 +20°C° 0.6 mm 4 mps 708 mmHg 94%
18:00 +20°C° 0.6 mm 4 mps 708 mmHg 95%
19:00 +20°C° 1.1 mm 3 mps 709 mmHg 95%
20:00 +20°C° 1.1 mm 2 mps 709 mmHg 96%
21:00 +21°C° 1.1 mm 1 mps 710 mmHg 96%
22:00 +21°C° 0.6 mm 1 mps 710 mmHg 96%
23:00 +21°C° 0.6 mm 1 mps 709 mmHg 97%

Tomorrow, 3 October, Saturday

Time Temperature Precipitation Wind Pressure Humidity
00:00 +22°C° 0.6 mm 1 mps 709 mmHg 97%
01:00 +22°C° 0.1 mm 1 mps 709 mmHg 97%
02:00 +21°C° 0.1 mm 1 mps 708 mmHg 97%
03:00 +21°C° 0.1 mm 1 mps 708 mmHg 97%
04:00 +21°C° 0.1 mm 1 mps 708 mmHg 97%
05:00 +21°C° 0.1 mm 1 mps 708 mmHg 98%
06:00 +21°C° 0.1 mm 1 mps 708 mmHg 98%
07:00 +22°C° 0.1 mm 1 mps 709 mmHg 96%
08:00 +23°C° 0.1 mm 2 mps 709 mmHg 93%
09:00 +24°C° 0.1 mm 2 mps 710 mmHg 91%
10:00 +24°C° 0.3 mm 2 mps 710 mmHg 92%
11:00 +23°C° 0.3 mm 2 mps 709 mmHg 92%
12:00 +23°C° 0.3 mm 2 mps 709 mmHg 93%
13:00 +22°C° 0.4 mm 3 mps 709 mmHg 92%
14:00 +22°C° 0.4 mm 3 mps 708 mmHg 92%
15:00 +24°C° 0.4 mm 3 mps 708 mmHg 92%
16:00 +22°C° 0 mm 3 mps 708 mmHg 92%
17:00 +23°C° 0 mm 2 mps 708 mmHg 92%
18:00 +21°C° 0 mm 2 mps 708 mmHg 91%
19:00 +21°C° 0 mm 2 mps 709 mmHg 92%
20:00 +21°C° 0 mm 2 mps 709 mmHg 92%
21:00 +22°C° 0 mm 1 mps 710 mmHg 92%
22:00 +22°C° 0 mm 1 mps 710 mmHg 93%
23:00 +21°C° 0 mm 1 mps 710 mmHg 93%

Day after tomorrow, 4 October, Sunday

Time Temperature Precipitation Wind Pressure Humidity
00:00 +21°C° 0 mm 1 mps 710 mmHg 94%
01:00 +21°C° 0 mm 1 mps 710 mmHg 94%
02:00 +21°C° 0 mm 1 mps 709 mmHg 95%
03:00 +20°C° 0 mm 1 mps 709 mmHg 95%
04:00 +20°C° 0 mm 1 mps 709 mmHg 95%
05:00 +20°C° 0 mm 1 mps 709 mmHg 95%
06:00 +19°C° 0 mm 1 mps 709 mmHg 94%
07:00 +20°C° 0 mm 2 mps 710 mmHg 89%
08:00 +23°C° 0 mm 2 mps 711 mmHg 83%
09:00 +24°C° 0 mm 2 mps 711 mmHg 77%
10:00 +26°C° 0 mm 2 mps 711 mmHg 71%
11:00 +27°C° 0 mm 3 mps 711 mmHg 66%
12:00 +28°C° 0 mm 3 mps 711 mmHg 61%
13:00 +28°C° 0 mm 3 mps 710 mmHg 62%
14:00 +28°C° 0 mm 4 mps 710 mmHg 63%
15:00 +28°C° 0 mm 4 mps 709 mmHg 64%
16:00 +26°C° 0 mm 4 mps 709 mmHg 71%
17:00 +24°C° 0 mm 3 mps 709 mmHg 77%
18:00 +22°C° 0 mm 3 mps 710 mmHg 84%
19:00 +21°C° 0 mm 2 mps 710 mmHg 86%
20:00 +20°C° 0 mm 2 mps 711 mmHg 88%
21:00 +20°C° 0 mm 2 mps 711 mmHg 90%
22:00 +20°C° 0 mm 2 mps 711 mmHg 91%
23:00 +19°C° 0 mm 2 mps 711 mmHg 92%

5 October, Monday

Time Temperature Precipitation Wind Pressure Humidity
00:00 +19°C° 0 mm 2 mps 711 mmHg 93%
01:00 +19°C° 0 mm 2 mps 710 mmHg 94%
02:00 +19°C° 0 mm 2 mps 710 mmHg 94%
03:00 +19°C° 0 mm 2 mps 709 mmHg 95%
04:00 +19°C° 0 mm 2 mps 710 mmHg 94%
05:00 +18°C° 0 mm 2 mps 710 mmHg 94%
06:00 +19°C° 0 mm 1 mps 710 mmHg 94%
07:00 +20°C° 0 mm 2 mps 710 mmHg 89%
08:00 +23°C° 0 mm 2 mps 711 mmHg 84%
09:00 +24°C° 0 mm 2 mps 711 mmHg 79%
10:00 +25°C° 0.1 mm 3 mps 711 mmHg 77%
11:00 +26°C° 0.1 mm 3 mps 711 mmHg 74%
12:00 +27°C° 0.1 mm 3 mps 711 mmHg 72%
13:00 +27°C° 0.1 mm 4 mps 710 mmHg 75%
14:00 +26°C° 0.1 mm 4 mps 709 mmHg 77%
15:00 +26°C° 0.1 mm 4 mps 709 mmHg 80%
16:00 +25°C° 0.1 mm 4 mps 709 mmHg 83%
17:00 +23°C° 0.1 mm 4 mps 709 mmHg 87%
18:00 +22°C° 0.1 mm 3 mps 709 mmHg 91%
19:00 +21°C° 0.1 mm 3 mps 710 mmHg 91%
20:00 +21°C° 0.1 mm 3 mps 710 mmHg 92%
21:00 +21°C° 0.1 mm 3 mps 710 mmHg 92%
22:00 +21°C° 0.1 mm 2 mps 710 mmHg 93%
23:00 +21°C° 0.1 mm 2 mps 710 mmHg 94%

6 October, Tuesday

Time Temperature Precipitation Wind Pressure Humidity
00:00 +21°C° 0.1 mm 2 mps 710 mmHg 95%
01:00 +21°C° 0.1 mm 2 mps 709 mmHg 94%
02:00 +21°C° 0.1 mm 2 mps 709 mmHg 94%
03:00 +21°C° 0.1 mm 2 mps 709 mmHg 94%
04:00 +20°C° 0 mm 2 mps 709 mmHg 95%
05:00 +21°C° 0 mm 1 mps 708 mmHg 96%
06:00 +20°C° 0 mm 1 mps 708 mmHg 96%
07:00 +21°C° 0 mm 2 mps 709 mmHg 91%
08:00 +23°C° 0 mm 2 mps 709 mmHg 86%
09:00 +25°C° 0 mm 2 mps 710 mmHg 81%
10:00 +26°C° 0.1 mm 3 mps 710 mmHg 78%
11:00 +26°C° 0.1 mm 3 mps 710 mmHg 76%
12:00 +27°C° 0.1 mm 3 mps 710 mmHg 74%
13:00 +27°C° 0.1 mm 3 mps 709 mmHg 76%
14:00 +27°C° 0.1 mm 3 mps 708 mmHg 77%
15:00 +26°C° 0.1 mm 3 mps 708 mmHg 79%
16:00 +25°C° 0 mm 3 mps 708 mmHg 83%
17:00 +24°C° 0 mm 3 mps 708 mmHg 87%
18:00 +22°C° 0 mm 3 mps 708 mmHg 91%
19:00 +21°C° 0 mm 2 mps 708 mmHg 92%
20:00 +21°C° 0 mm 2 mps 709 mmHg 94%
21:00 +22°C° 0 mm 1 mps 709 mmHg 96%
22:00 +21°C° 0 mm 1 mps 709 mmHg 96%
23:00 +21°C° 0 mm 1 mps 709 mmHg 97%

7 October, Wednesday

Time Temperature Precipitation Wind Pressure Humidity
00:00 +21°C° 0 mm 1 mps 709 mmHg 97%
01:00 +21°C° 0 mm 1 mps 708 mmHg 97%
02:00 +19°C° 0 mm 0 mps 708 mmHg 97%
03:00 +19°C° 0 mm 0 mps 708 mmHg 96%
04:00 +19°C° 0 mm 0 mps 708 mmHg 96%
05:00 +18°C° 0 mm 0 mps 708 mmHg 97%
06:00 +18°C° 0 mm 0 mps 708 mmHg 97%
07:00 +20°C° 0 mm 0 mps 709 mmHg 91%
08:00 +24°C° 0 mm 1 mps 709 mmHg 85%
09:00 +26°C° 0 mm 1 mps 710 mmHg 80%
10:00 +27°C° 0 mm 1 mps 710 mmHg 78%
11:00 +27°C° 0 mm 1 mps 709 mmHg 76%
12:00 +28°C° 0 mm 1 mps 709 mmHg 75%
13:00 +28°C° 0.1 mm 1 mps 709 mmHg 76%
14:00 +28°C° 0.1 mm 2 mps 708 mmHg 77%
15:00 +28°C° 0.1 mm 2 mps 707 mmHg 78%
16:00 +26°C° 0.1 mm 2 mps 708 mmHg 82%
17:00 +25°C° 0.1 mm 1 mps 708 mmHg 87%
18:00 +23°C° 0.1 mm 1 mps 708 mmHg 91%
19:00 +23°C° 0 mm 1 mps 708 mmHg 91%
20:00 +23°C° 0 mm 1 mps 709 mmHg 90%
21:00 +23°C° 0 mm 1 mps 709 mmHg 90%
22:00 +22°C° 0 mm 1 mps 709 mmHg 90%
23:00 +20°C° 0 mm 0 mps 709 mmHg 91%
Show more

We Need Your Consent

Meteoprog and our Service Providers may store and access personal data such as cookies, device identifiers or other similar technologies on your device and process such data to personalise content and ads, as well as provide social media features and to analyse the traffic.

  • Store and/or access information on your device

    Cookies, device identifiers or other information can be stored or accessed on your device for the purposes indicated above.

  • Personalised ads and content, ad and content measurement, audience insights, and products development

    Ads and content can be personalised based on a profile. More data can be added to better personalise ads and content. Ad and content performance can be measured. Insights about the audience who saw the ads and content can be derived. Such data can be used to develop or improve user’s experience, systems and software.

By clicking ‘I Agree’ you will allow the use of indicated cookies, device identifiers, web beacons or other similar technologies. Your settings can be changed in the browser on your device.

For certain purposes, legitimate interests may be relied on, rather than consent. You can read more about this in our Privacy and Cookie Policy.